Regional Weather Roundup
Issued by NWS

Home | Current Version | Previous Version | Graphics & Text | Print | Product List | Glossary On
Versions: 1 2 3 4 5 6 7 8 9 10 11 12 13 14 15 16 17 18 19 20 21 22 23 24 25 26 27 28 29 30 31 32 33 34 35 36 37 38 39 40 41 42 43 44 45 46 47 48 49 50
000
ASUS43 KLMK 031510
RWRKY
KENTUCKY REGIONAL WEATHER ROUNDUP
NATIONAL WEATHER SERVICE LOUISVILLE KY
1100 AM EDT WED JUN 03 2015

NOTE "FAIR" INDICATES FEW OR NO CLOUDS BELOW 12,000 FEET
WITH NO SIGNIFICANT WEATHER AND/OR OBSTRUCTIONS TO VISIBILITY.

KYZ001>023-026-027-061>063-070>075-031600-
WESTERN AND SOUTH CENTRAL KENTUCKY

CITY           SKY/WX    TMP DP  RH WIND       PRES   REMARKS
PADUCAH        MOSUNNY   70  57  63 NE5       30.04F
HENDERSON      CLOUDY    63  54  72 E3        30.06S
OWENSBORO      CLOUDY    63  55  75 E6        30.07F
HOPKINSVILLE   PTSUNNY   63  56  76 N7        30.05S
BOWLING GREEN  CLOUDY    64  54  69 E7        30.06S
GLASGOW        CLOUDY    63  53  71 NE3       30.05F
$$

KYZ024-025-028>034-038-045-046-053-031600-
NORTH CENTRAL KENTUCKY

CITY           SKY/WX    TMP DP  RH WIND       PRES   REMARKS
LOUISVILLE/SDF CLOUDY    65  55  70 E6        30.06F
LOUISVILLE/LOU CLOUDY    65  55  70 E6        30.07F
FORT KNOX      CLOUDY    62  55  77 E7        30.05F
$$

KYZ035>037-039>044-047>052-055>060-089>105-031600-
NORTHEAST KENTUCKY

CITY           SKY/WX    TMP DP  RH WIND       PRES   REMARKS
LEXINGTON      CLOUDY    62  56  80 E7        30.07S
COVINGTON      CLOUDY    63  56  78 NE3       30.08F HAZE
FRANKFORT      CLOUDY    62  55  77 E5        30.06F
$$

KYZ054-064>069-076>088-106>120-031600-
SOUTHEAST KENTUCKY

CITY           SKY/WX    TMP DP  RH WIND       PRES   REMARKS
JACKSON        CLOUDY    61  56  83 CALM      30.08S
LONDON         CLOUDY    63  55  75 E6        30.07S
SOMERSET       CLOUDY    61  59  94 CALM      30.08S FOG
MIDDLESBORO    CLOUDY    68  59  73 CALM      30.06R
MONTICELLO     CLOUDY    63  60  90 NE5       30.08F
$$



USA.gov is the U.S. government's official web portal to all federal, state and local government web resources and services.